Time[GMT],air_temperature[C](-3m),wind_speed[m/s](-4m),wind_gust[m/s](-4m),wind_direction[degrees](-4m),visibility[m](-3m),barometric_pressure[millibars](-3m)
2005-05-21 00:00,,,,,,
2005-05-21 01:00,,,,,,
2005-05-21 02:00,8.0,1.0,1.5,296,2820,1015.55
2005-05-21 03:00,7.7,0.4,0.8,269,2817,1015.18
2005-05-21 04:00,7.2,0.6,0.9,261,2782,1015.18
2005-05-21 05:00,7.0,0.8,1.1,360,2784,1015.06
2005-05-21 06:00,7.5,3.0,3.4, 30,2805,1014.88
2005-05-21 07:00,7.5,4.8,5.4, 25,2843,1014.81
2005-05-21 08:00,7.4,3.7,4.2, 33,2820,1014.94
2005-05-21 09:00,7.4,3.0,3.7, 44,2847,1015.55
2005-05-21 10:00,,,,,,
2005-05-21 11:00,,,,,,
2005-05-21 12:00,6.7,4.5,5.4, 60,2854,1015.49
2005-05-21 13:00,6.4,4.5,5.2, 62,2879,1015.49
2005-05-21 14:00,,,,,,
2005-05-21 15:00,6.5,4.5,5.3, 83,2814,1015.18
2005-05-21 16:00,,,,,,
2005-05-21 17:00,,,,,,
2005-05-21 18:00,,,,,,
2005-05-21 19:00,6.8,7.1,8.4, 67,2798,1014.02
2005-05-21 22:00,6.8,7.3,9.4, 57,2580,1012.18
2005-05-21 23:00,,,,,,
2005-05-22 00:00,,,,,,
2005-05-22 01:00,,,,,,
2005-05-22 02:00,,,,,,
2005-05-22 03:00,,,,,,
2005-05-22 04:00,,,,,,
2005-05-22 05:00,,,,,,
2005-05-22 06:00,,,,,,
2005-05-22 07:00,,,,,,
2005-05-22 08:00,5.8,16.1,21.5, 52,1084,1004.09
2005-05-22 09:00,,,,,,
2005-05-22 10:00,,,,,,
2005-05-22 11:00,6.0,14.4,16.9, 58,1695,1003.54
2005-05-22 12:00,6.0,13.6,17.3, 64,1795,1003.35
2005-05-22 13:00,,,,,,
2005-05-22 14:00,,,,,,
2005-05-22 16:00,6.0,12.0,14.8, 70,1811,1004.09
2005-05-22 18:00,,,,,,
2005-05-22 19:00,,,,,,
2005-05-22 20:00,,,,,,
2005-05-22 21:00,,,,,,
2005-05-22 22:00,,,,,,
2005-05-22 23:00,,,,,,
2005-05-23 00:00,,,,,,
2005-05-23 03:00,5.3,6.8,7.8, 71,1922,1007.77
2005-05-23 04:00,,,,,,
2005-05-23 05:00,,,,,,
2005-05-23 06:00,,,,,,
2005-05-23 07:00,5.7,8.3,9.6, 52,2199,1006.60
2005-05-23 08:00,,,,,,
2005-05-23 09:00,,,,,,
2005-05-23 10:00,,,,,,
2005-05-23 11:00,,,,,,
2005-05-23 13:00,6.3,12.4,14.8, 55,1457,1004.39
2005-05-23 14:00,6.0,13.6,16.7, 49,1041,1004.46
2005-05-23 15:00,5.8,15.5,19.0, 51,1140,1003.78
2005-05-23 16:00,,,,,,
2005-05-23 17:00,,,,,,
2005-05-23 18:00,6.6,16.7,19.8, 44,1640,1004.15
2005-05-23 19:00,,,,,,
2005-05-23 20:00,6.8,15.7,20.1, 48,1890,1003.84
2005-05-23 21:00,7.3,15.0,18.1, 56,1814,1004.39
2005-05-23 22:00,7.0,15.2,18.1, 64,1754,1004.70
2005-05-23 23:00,6.9,15.1,18.5, 62,2159,1006.42
2005-05-24 00:00,,,,,,
2005-05-24 02:00,6.0,12.3,14.2, 76,2440,1009.60
2005-05-24 03:00,6.0,11.8,14.2, 70,2652,1010.77
2005-05-24 04:00,,,,,,
2005-05-24 05:00,5.8,11.2,13.6, 64,2651,1010.83
2005-05-24 06:00,5.7,11.5,13.5, 60,2661,1011.08
2005-05-24 07:00,,,,,,
2005-05-24 08:00,5.6,12.3,14.4, 61,2578,1011.93
2005-05-24 09:00,5.4,11.1,14.9, 55,2368,1012.49
2005-05-24 10:00,5.2,10.3,13.2, 50,1787,1013.04
2005-05-24 11:00,4.9,10.8,12.9, 53,1326,1013.47
2005-05-24 12:00,5.1,10.9,12.8, 55,2057,1014.08
2005-05-24 13:00,4.9,11.4,13.9, 58,1874,1014.26
2005-05-24 14:00,,,,,,
2005-05-24 15:00,4.8,12.8,15.4, 48,1531,1014.63
2005-05-24 16:00,4.7,13.1,15.5, 52,1339,1014.14
2005-05-24 17:00,5.0,13.0,15.5, 53,1961,1014.63
2005-05-24 18:00,5.3,12.7,15.6, 46,2363,1014.81
2005-05-24 19:00,5.7,12.5,14.9, 56, 843,1014.51
2005-05-24 20:00,6.0,11.8,14.1, 55,1649,1015.00
2005-05-24 21:00,6.4,10.9,12.7, 66,1758,1014.81
2005-05-24 22:00,6.1,8.5,10.1, 38,1939,1014.51
2005-05-24 23:00,7.0,10.2,12.2, 48,2587,1014.14
2005-05-25 00:00,,,,,,
2005-05-25 01:00,,,,,,
2005-05-25 02:00,,,,,,
2005-05-25 03:00,6.5,11.8,14.4, 59,2539,1014.75
2005-05-25 04:00,,,,,,
2005-05-25 05:00,,,,,,
2005-05-25 06:00,,,,,,
2005-05-25 07:00,,,,,,
2005-05-25 08:00,5.4,13.6,16.3, 38,1654,1013.71
2005-05-25 09:00,5.1,14.5,17.0, 41, 911,1013.71
2005-05-25 10:00,5.1,15.1,18.6, 41,1684,1013.53
2005-05-25 11:00,5.1,14.4,18.0, 45, 906,1013.77
2005-05-25 12:00,5.3,14.1,16.5, 49,1116,1014.32
2005-05-25 13:00,5.1,14.5,18.0, 50,1176,1014.57
2005-05-25 14:00,5.2,14.0,18.9, 46,1947,1014.39
2005-05-25 15:00,5.4,13.9,17.8, 46,1410,1015.00
2005-05-25 16:00,5.7,15.6,18.3, 51,1692,1014.51
2005-05-25 17:00,5.8,15.0,18.1, 44,1624,1015.43
2005-05-25 18:00,,,,,,
2005-05-25 19:00,6.3,14.7,18.1, 42, 738,1014.51
2005-05-25 20:00,,,,,,
2005-05-25 21:00,,,,,,
2005-05-25 22:00,7.8,14.6,18.2, 48,1477,1013.34
2005-05-25 23:00,8.1,12.4,15.6, 44,2569,1013.10
2005-05-26 00:00,,,,,,
2005-05-26 02:00,6.9,13.4,16.4, 51, 688,1012.00
2005-05-26 03:00,6.6,13.9,16.4, 50,1059,1011.20
2005-05-26 04:00,6.4,14.3,17.4, 41,1161,1010.22
2005-05-26 05:00,,,,,,
2005-05-26 06:00,6.2,13.0,15.9, 45, 985,1009.05
2005-05-26 07:00,6.1,14.8,17.4, 50, 430,1007.89
2005-05-26 08:00,6.0,13.3,16.4, 57,1567,1008.07
2005-05-26 09:00,6.0,13.6,15.6, 55,1623,1008.50
2005-05-26 10:00,,,,,,
2005-05-26 11:00,6.0,12.7,15.1, 62,1655,1008.01
2005-05-26 12:00,5.9,11.6,13.7, 48,1953,1008.68
2005-05-26 13:00,6.1,11.6,13.5, 51,2209,1008.50
2005-05-26 14:00,6.0,13.7,16.8, 47,2036,1007.28
2005-05-26 15:00,6.1,13.4,16.1, 52, 521,1006.17
2005-05-26 16:00,6.6,12.6,17.5, 60, 661,1005.50
2005-05-26 17:00,6.7,14.6,17.6, 46, 687,1005.25
2005-05-26 18:00,6.4,13.0,16.4, 47, 520,1004.46
2005-05-26 19:00,,,,,,
2005-05-26 20:00,,,,,,
2005-05-26 21:00,,,,,,
2005-05-26 22:00,6.6,10.7,13.2, 47,1836,1002.68
2005-05-26 23:00,,,,,,
2005-05-27 00:00,,,,,,
2005-05-27 01:00,,,,,,
2005-05-27 02:00,6.2,9.6,11.1, 49,1200,1003.05
2005-05-27 03:00,6.1,8.9,10.3, 48,1026,1003.11
2005-05-27 04:00,6.0,8.5,10.0, 54,1522,1003.11
2005-05-27 05:00,6.0,8.3,10.0, 59,1546,1002.68
2005-05-27 06:00,6.1,8.1,9.8, 44,1143,1002.62
2005-05-27 07:00,6.0,8.0,9.0, 45,1129,1002.37
2005-05-27 08:00,6.1,6.8,7.8, 43, 715,1002.80
2005-05-27 09:00,5.9,5.8,6.7, 36, 783,1003.35
2005-05-27 10:00,6.3,7.8,8.8, 37, 552,1003.72
2005-05-27 11:00,6.6,7.3,8.2, 43, 928,1004.09
2005-05-27 12:00,6.2,5.3,6.1, 44,1027,1004.58
2005-05-27 13:00,6.3,4.9,5.4, 50,1022,1004.33
2005-05-27 14:00,6.1,3.3,4.1,  9,1253,1004.21
2005-05-27 15:00,6.7,3.0,3.6, 12,2882,1004.52
2005-05-27 16:00,7.3,4.2,4.8, 10,2783,1004.70
2005-05-27 17:00,7.3,2.7,3.2,  2,2861,1004.88
2005-05-27 18:00,7.6,3.3,3.8,356,2910,1005.07
2005-05-27 19:00,7.8,3.7,4.4,  3,2855,1004.88
2005-05-27 20:00,8.1,3.0,4.2,325,2894,1005.01
2005-05-27 21:00,8.2,2.4,3.1,315,2884,1005.19
2005-05-27 22:00,7.7,2.2,2.7,274,2859,1005.56
2005-05-27 23:00,7.4,2.6,3.1,282,2816,1006.11
2005-05-28 00:00,,,,,,
2005-05-28 01:00,,,,,,
2005-05-28 02:00,7.8,1.7,2.4,250,2882,1007.40
2005-05-28 03:00,6.8,1.4,2.1,269,2758,1007.28
2005-05-28 04:00,6.6,1.8,2.4,250,2467,1007.15
2005-05-28 05:00,6.5,2.0,2.5,279,2622,1006.85
2005-05-28 06:00,7.3,2.3,2.8,325,2594,1006.54
2005-05-28 07:00,6.5,1.7,2.0,250,2581,1006.48
2005-05-28 08:00,6.7,1.8,2.3,274,2560,1006.05
2005-05-28 09:00,6.7,1.8,2.3,273,2412,1006.29
2005-05-28 10:00,6.8,1.8,2.4,299,2289,1006.66
2005-05-28 11:00,6.8,1.7,2.3,294,2088,1006.91
2005-05-28 12:00,8.2,2.1,2.7,335, 569,1007.21
2005-05-28 13:00,8.2,1.7,2.2,318, 479,1007.09
2005-05-28 14:00,7.7,2.4,2.8,247, 709,1007.28
2005-05-28 15:00,7.0,2.7,3.2,236, 863,1007.40
2005-05-28 16:00,7.2,3.5,3.7,244,1365,1007.46
2005-05-28 17:00,7.1,4.0,4.4,234, 582,1007.34
2005-05-28 18:00,7.3,4.1,4.6,243,2414,1007.46
2005-05-28 19:00,7.4,1.9,3.2,246,2653,1007.34
2005-05-28 20:00,7.4,2.9,3.6,228,2528,1007.46
2005-05-28 21:00,7.8,4.0,4.9,249,2849,1007.46
2005-05-28 22:00,7.7,4.1,4.7,239,2844,1007.70
2005-05-28 23:00,7.1,2.7,3.5,231,2849,1007.95
2005-05-29 00:00,,,,,,
2005-05-29 01:00,,,,,,
2005-05-29 02:00,,,,,,
2005-05-29 03:00,6.6,1.9,2.2,197,2846,1008.81
2005-05-29 04:00,7.2,0.8,1.5,204,2865,1008.32
2005-05-29 05:00,6.5,1.5,1.8,143,2880,1008.01
2005-05-29 06:00,6.8,1.6,2.3,165,2892,1007.52
2005-05-29 07:00,7.0,0.6,0.8, 94,2898,1007.28
2005-05-29 08:00,6.6,1.7,2.1,140,2880,1007.40
2005-05-29 09:00,6.5,2.0,2.3, 84,2808,1007.52
2005-05-29 10:00,6.7,2.5,2.8,120,2877,1007.83
2005-05-29 11:00,7.4,1.9,2.1,108,2874,1007.77
2005-05-29 12:00,8.1,2.3,2.5, 77,2876,1008.01
2005-05-29 13:00,7.9,1.9,2.2, 92,2876,1008.44
2005-05-29 14:00,7.4,3.4,3.7, 54,2885,1008.56
2005-05-29 15:00,6.8,3.4,3.8, 76,2835,1009.05
2005-05-29 16:00,7.2,3.4,3.8, 57,2876,1008.68
2005-05-29 17:00,7.0,3.3,3.7, 65,2880,1008.44
2005-05-29 18:00,6.7,2.5,3.0, 72,2207,1008.13
2005-05-29 19:00,6.7,2.8,3.2, 67, 239,1007.95
2005-05-29 20:00,6.6,3.4,3.9, 56, 564,1007.70
2005-05-29 21:00,6.5,1.7,2.5, 66,1899,1008.07
2005-05-29 22:00,6.5,1.4,1.9,105, 247,1008.19
2005-05-29 23:00,6.5,1.4,1.5,127, 172,1008.62
2005-05-30 00:00,,,,,,
2005-05-30 01:00,,,,,,
2005-05-30 02:00,6.4,2.1,2.4,  6, 376,1009.97
2005-05-30 03:00,6.4,2.5,3.0, 29,1644,1009.54
2005-05-30 04:00,6.3,1.8,2.4, 33,2289,1009.42
2005-05-30 05:00,6.4,0.7,1.7,277,2408,1009.36
2005-05-30 06:00,6.3,0.3,0.8, 26,2431,1008.99
2005-05-30 07:00,6.4,1.2,1.5,348, 353,1008.99
2005-05-30 08:00,6.5,2.6,3.3, 60,2439,1008.93
2005-05-30 09:00,6.5,1.1,1.9,112,2492,1009.42
2005-05-30 10:00,6.2,1.1,2.3,191,2590,1009.91
2005-05-30 11:00,6.2,1.0,1.5,149,2566,1010.46
2005-05-30 12:00,6.1,1.0,1.3,143, 197,1011.38
2005-05-30 13:00,6.5,0.6,1.0, 96, 797,1011.81
2005-05-30 14:00,6.8,1.9,2.1,105,1856,1012.00
2005-05-30 15:00,7.0,2.0,2.3, 93,2671,1012.18
2005-05-30 16:00,6.7,1.2,1.5, 75,2438,1012.24
2005-05-30 17:00,6.7,1.7,2.1, 58, 997,1012.36
2005-05-30 18:00,6.9,1.7,2.2, 57, 489,1012.18
2005-05-30 19:00,6.2,4.1,4.9, 50,2649,1012.24
2005-05-30 20:00,6.4,2.3,3.5, 72,2673,1012.24
2005-05-30 21:00,6.0,1.8,2.2, 58,2374,1012.67
2005-05-30 22:00,5.9,2.1,2.4, 78,1283,1013.16
2005-05-30 23:00,6.0,3.3,3.6, 56, 232,1013.71
2005-05-31 00:00,,,,,,
2005-05-31 01:00,,,,,,
2005-05-31 02:00,5.7,3.0,3.3, 71, 621,1015.24
2005-05-31 03:00,5.6,2.9,3.1, 65,2501,1015.06
2005-05-31 04:00,5.6,3.2,3.6, 58,1961,1015.31
2005-05-31 05:00,5.6,2.7,3.2, 99,2620,1015.24
2005-05-31 06:00,5.5,3.5,4.0, 67,2694,1015.55
2005-05-31 07:00,5.6,4.2,4.8, 66,2697,1015.67
2005-05-31 08:00,5.5,4.3,5.1, 63,2410,1016.16
2005-05-31 09:00,5.4,3.4,3.9, 61, 747,1016.78
2005-05-31 10:00,5.4,3.9,4.4, 60,1571,1017.33
2005-05-31 11:00,5.5,3.9,4.4, 68,1427,1017.76
2005-05-31 12:00,5.6,3.7,4.1, 46, 520,1018.49
2005-05-31 13:00,5.7,3.4,3.8, 58,1376,1019.17
2005-05-31 14:00,5.8,3.5,3.9, 61, 455,1019.90
2005-05-31 15:00,5.9,3.7,4.2, 69,2744,1020.27
2005-05-31 16:00,6.0,3.3,3.8, 75,1523,1020.70
2005-05-31 17:00,6.1,3.2,3.6, 76,2630,1020.94
2005-05-31 18:00,6.1,3.1,3.6, 66,2689,1020.88
2005-05-31 19:00,6.5,1.9,2.4, 54,2837,1021.01
2005-05-31 20:00,6.6,1.9,2.2, 72,2836,1020.88
2005-05-31 21:00,6.3,2.8,3.3,116,2855,1020.76
2005-05-31 22:00,6.5,1.8,2.3, 84,2859,1020.52
2005-05-31 23:00,6.7,0.8,1.3, 72,2886,1020.64
2005-06-01 00:00,,,,,,
2005-06-01 01:00,,,,,,
2005-06-01 02:00,6.6,0.5,1.2,154,2888,1022.60
2005-06-01 03:00,6.6,2.0,2.6,140,2873,1022.66
2005-06-01 04:00,6.6,0.8,1.3,296,2874,1022.60
2005-06-01 05:00,6.4,1.3,1.7,209,2850,1022.48
2005-06-01 06:00,6.7,2.3,3.1,295,2826,1022.05
2005-06-01 07:00,6.5,0.9,1.3,300,2822,1021.99
2005-06-01 08:00,7.0,1.7,2.1,  6,2844,1022.05
2005-06-01 09:00,7.8,2.0,2.6,332,2852,1022.35
2005-06-01 10:00,7.2,1.3,1.6,266,2821,1022.72
2005-06-01 11:00,8.0,1.2,1.8,286,2874,1023.09
2005-06-01 12:00,7.9,1.5,1.7,241,2841,1023.34
2005-06-01 13:00,8.5,0.4,0.8,178,2822,1023.64
2005-06-01 14:00,7.7,2.1,2.4,248,2853,1024.01
2005-06-01 15:00,7.8,1.8,2.3,245,2874,1024.25
2005-06-01 16:00,8.1,2.6,3.3,234,2896,1024.25
2005-06-01 17:00,,,,,,
2005-06-01 18:00,8.6,4.6,5.1,243,2904,1024.01
2005-06-01 19:00,8.5,4.8,5.4,247,2700,1023.89
2005-06-01 20:00,8.4,4.0,4.6,243,2867,1023.46
2005-06-01 21:00,8.4,3.7,4.2,237,2641,1023.40
2005-06-01 22:00,8.1,3.8,4.2,235,2859,1023.21
2005-06-01 23:00,8.4,3.6,4.3,241,2889,1023.27
2005-06-02 00:00,,,,,,
2005-06-02 01:00,,,,,,
2005-06-02 02:00,7.5,4.4,5.3,245,2810,1024.62
2005-06-02 03:00,7.2,3.9,4.4,263,2811,1024.75
2005-06-02 04:00,6.9,3.1,3.6,248,2820,1024.68
2005-06-02 05:00,7.2,4.6,5.1,244,2837,1024.25
2005-06-02 06:00,6.9,3.0,3.8,258,2778,1024.19
2005-06-02 07:00,6.3,3.6,4.3,249, 457,1024.01
2005-06-02 08:00,6.6,4.4,5.3,236, 158,1023.76
2005-06-02 09:00,6.4,4.4,5.3,227, 157,1023.70
2005-06-02 10:00,6.0,4.4,5.1,234, 496,1023.83
2005-06-02 11:00,6.5,5.8,6.7,233, 218,1023.76
2005-06-02 12:00,6.2,5.3,6.3,246, 218,1024.07
2005-06-02 13:00,5.9,5.6,6.9,253, 249,1024.25
2005-06-02 14:00,5.9,6.6,7.6,245, 335,1024.13
2005-06-02 15:00,6.3,6.9,8.5,234, 322,1024.25
2005-06-02 16:00,6.5,6.5,7.9,242, 533,1024.07
2005-06-02 17:00,6.4,6.3,7.6,229, 406,1023.64
2005-06-02 18:00,6.4,6.6,7.8,224, 450,1023.15
2005-06-02 19:00,6.2,7.2,8.6,218, 413,1022.60
2005-06-02 20:00,6.6,7.4,8.6,228, 378,1022.29
2005-06-02 21:00,6.8,7.4,8.9,225, 497,1021.99
2005-06-02 22:00,6.7,7.0,8.1,229, 370,1021.37
2005-06-02 23:00,6.0,6.7,8.0,221, 592,1020.88
2005-06-03 00:00,,,,,,
2005-06-03 01:00,,,,,,
2005-06-03 02:00,,,,,,
2005-06-03 03:00,5.8,6.0,7.2,241, 539,1021.62
2005-06-03 04:00,5.9,5.4,6.4,232, 314,1021.50
2005-06-03 05:00,5.7,6.1,6.9,232, 435,1021.44
2005-06-03 06:00,5.6,4.3,5.5,226, 383,1020.70
2005-06-03 07:00,6.4,3.6,4.2,217,2806,1020.45
2005-06-03 08:00,6.8,5.8,6.8,209,2748,1020.33
2005-06-03 09:00,6.7,4.5,5.3,219,2716,1020.39
2005-06-03 10:00,6.9,4.8,5.7,219,2641,1020.58
2005-06-03 11:00,6.9,5.2,5.9,212,2730,1020.03
2005-06-03 12:00,6.9,4.3,5.0,220,2780,1019.78
2005-06-03 13:00,7.1,4.4,5.7,221,2669,1019.53
2005-06-03 14:00,6.9,6.2,7.2,229, 262,1019.60
2005-06-03 15:00,7.2,6.4,7.2,229, 480,1019.35
2005-06-03 16:00,7.2,5.9,7.0,217, 720,1018.62
2005-06-03 17:00,7.1,7.0,8.0,216,1317,1018.31
2005-06-03 18:00,7.2,6.8,8.0,226, 676,1017.88
2005-06-03 19:00,7.6,5.3,6.6,220,2471,1017.21
2005-06-03 20:00,7.8,6.3,7.3,216,2064,1016.47
2005-06-03 21:00,8.3,5.7,6.8,219,2684,1015.80
2005-06-03 22:00,8.8,4.8,5.6,226,2694,1015.37
2005-06-03 23:00,8.8,2.5,3.3,228,2543,1015.24
2005-06-04 00:00,,,,,,
2005-06-04 01:00,,,,,,
2005-06-04 02:00,8.4,3.0,3.7,232,2644,1014.69
2005-06-04 03:00,8.3,3.3,3.7,223,2559,1014.14
2005-06-04 04:00,8.4,2.0,2.6,220,2585,1014.02
2005-06-04 05:00,8.4,3.5,4.0,236,2548,1013.28
2005-06-04 06:00,,,,,,
2005-06-04 07:00,8.6,4.6,5.8,228,2581,1012.18
2005-06-04 08:00,8.7,3.9,4.7,250,2513,1012.30
2005-06-04 09:00,8.6,5.2,6.0,216,2470,1011.93
2005-06-04 10:00,8.9,5.1,5.7,235,2471,1012.30
2005-06-04 11:00,,,,,,
2005-06-04 12:00,,,,,,
2005-06-04 13:00,8.7,5.5,6.2,215,2605,1011.32
2005-06-04 14:00,8.9,5.3,6.0,228,2671,1011.20
2005-06-04 15:00,9.1,5.3,6.2,225,2752,1011.14
2005-06-04 16:00,9.2,6.1,7.0,222,2762,1010.95
2005-06-04 17:00,9.2,4.8,6.4,220,2646,1010.83
2005-06-04 18:00,9.5,4.9,5.6,218,2674,1010.46
2005-06-04 19:00,9.4,5.1,6.0,210,2679,1010.09
2005-06-04 20:00,9.7,5.4,6.5,203,2802,1009.91
2005-06-04 21:00,9.6,6.0,6.9,203,2649,1009.60
2005-06-04 22:00,9.3,5.3,6.0,205,2691,1009.91
2005-06-04 23:00,8.9,5.5,6.4,216, 491,1009.79
2005-06-05 00:00,,,,,,
2005-06-05 01:00,,,,,,
2005-06-05 02:00,8.6,3.4,3.6,221, 231,1010.40
2005-06-05 03:00,8.6,3.4,3.8,195, 422,1010.22
2005-06-05 04:00,8.4,3.6,4.1,206, 250,1010.09
2005-06-05 05:00,8.6,2.5,3.1,212, 179,1010.09
2005-06-05 06:00,8.6,0.8,1.6,178, 113,1010.40
2005-06-05 07:00,8.1,2.5,3.1,167, 378,1010.34
2005-06-05 08:00,8.2,3.3,4.0,199, 202,1010.16
2005-06-05 09:00,8.2,1.4,2.5,220, 223,1010.71
2005-06-05 10:00,8.2,1.6,1.9,187, 100,1011.01
2005-06-05 11:00,8.2,1.9,2.6,184, 187,1011.44
2005-06-05 12:00,8.4,2.1,2.6,221, 122,1012.00
2005-06-05 13:00,8.1,2.5,4.1, 22,1093,1013.34
2005-06-05 14:00,8.3,5.4,6.3, 64, 771,1013.47
2005-06-05 15:00,8.1,4.2,5.1, 79, 888,1013.65
2005-06-05 16:00,8.1,4.6,5.3, 85, 431,1013.53
2005-06-05 17:00,7.7,3.6,4.2, 73,2829,1013.71
2005-06-05 18:00,7.7,3.5,4.2, 97,2576,1013.59
2005-06-05 19:00,7.7,3.5,4.2,105,2566,1013.71
2005-06-05 20:00,8.2,2.7,3.2,112,2841,1013.77
2005-06-05 21:00,8.2,2.5,2.9, 64,2749,1014.75
2005-06-05 22:00,8.1,4.3,5.0, 68,1633,1015.73
2005-06-05 23:00,8.0,5.3,6.3, 69, 726,1016.47
2005-06-06 00:00,,,,,,
2005-06-06 01:00,,,,,,
2005-06-06 02:00,7.9,6.0,7.1, 61,2466,1018.19
2005-06-06 03:00,8.1,6.8,7.8, 46,2711,1017.51
2005-06-06 04:00,7.9,6.8,7.9, 61,2729,1018.37
2005-06-06 05:00,7.3,4.0,5.5, 84,1154,1018.86
2005-06-06 06:00,7.2,3.5,4.7, 53,1682,1019.96
2005-06-06 07:00,7.1,1.7,2.3, 32,2251,1021.01
2005-06-06 08:00,6.7,5.6,6.7, 69,2545,1020.52
2005-06-06 09:00,6.9,5.5,6.3, 70,2697,1020.94
2005-06-06 10:00,6.8,4.2,4.7, 73,2639,1021.31
2005-06-06 11:00,6.7,4.3,5.0, 47,2459,1022.23
2005-06-06 12:00,7.0,4.6,5.2, 87,2694,1021.74
2005-06-06 13:00,7.4,5.7,6.7,103,2860,1021.31
2005-06-06 14:00,7.5,4.4,5.3,120,2861,1021.56
2005-06-06 15:00,7.4,4.4,5.1,115,2886,1021.07
2005-06-06 16:00,7.4,4.5,5.7,110,2884,1020.58
2005-06-06 17:00,7.3,5.5,6.3,108,2861,1019.72
2005-06-06 18:00,7.3,6.3,7.6,132,2814,1018.98
2005-06-06 19:00,7.2,6.8,8.0,127,2789,1018.49
2005-06-06 20:00,7.3,8.2,10.0,130,2650,1017.08
2005-06-06 21:00,7.6,7.4,8.7,134,2398,1016.65
2005-06-06 22:00,7.6,9.6,12.0,139,1396,1015.31
2005-06-06 23:00,7.6,8.2,9.9,150, 940,1014.81
2005-06-07 00:00,,,,,,
2005-06-07 01:00,,,,,,
2005-06-07 02:00,7.4,5.5,6.3,165, 338,1012.61
2005-06-07 03:00,7.4,4.6,5.3,181, 352,1011.81
2005-06-07 04:00,7.4,3.8,4.4,171, 280,1011.20
2005-06-07 05:00,,,,,,
2005-06-07 06:00,8.0,5.6,6.7,194, 251,1010.65
2005-06-07 07:00,7.9,5.6,6.9,196, 300,1009.73
2005-06-07 08:00,8.3,5.4,6.3,207, 861,1009.73
2005-06-07 09:00,9.1,8.1,10.0,194, 934,1008.50
2005-06-07 10:00,9.8,4.9,6.7,197,1075,1009.18
2005-06-07 11:00,9.2,4.1,5.4,209, 170,1008.68
2005-06-07 12:00,8.3,5.3,6.2,204, 329,1008.68
2005-06-07 13:00,8.6,7.3,8.7,217, 339,1007.95
2005-06-07 14:00,8.5,4.3,6.3,236, 237,1007.83
2005-06-07 15:00,8.4,2.8,3.6,238, 202,1007.40
2005-06-07 16:00,8.6,7.0,8.0,210, 263,1006.66
2005-06-07 17:00,8.0,5.3,6.7,206, 160,1006.29
2005-06-07 18:00,8.1,4.8,5.8,215, 154,1005.74
2005-06-07 19:00,8.2,3.3,4.2,181, 126,1005.44
2005-06-07 20:00,8.4,3.0,4.0,194, 217,1005.01
2005-06-07 21:00,9.3,2.7,3.2,218,2072,1004.70
2005-06-07 22:00,10.0,6.2,7.2,208,2299,1004.33
2005-06-07 23:00,10.7,6.1,6.9,239,2366,1004.15
2005-06-08 00:00,,,,,,
2005-06-08 01:00,,,,,,
2005-06-08 02:00,9.8,2.3,3.9,270,2242,1005.19
2005-06-08 03:00,9.5,4.0,4.5,245,2260,1005.25
2005-06-08 04:00,9.6,1.3,2.5,227,2353,1005.80
2005-06-08 05:00,9.8,2.8,3.5,266,2465,1005.87
2005-06-08 06:00,9.6,2.9,3.5,249,2530,1005.80
2005-06-08 07:00,9.4,1.7,2.3,317,2504,1006.60
2005-06-08 08:00,10.9,2.9,3.3,323,2692,1007.15
2005-06-08 09:00,11.4,3.6,4.4,309,2743,1008.50
2005-06-08 10:00,12.4,2.4,3.6,313,2793,1009.36
2005-06-08 11:00,12.5,3.6,4.2,299,2847,1010.03
2005-06-08 12:00,12.2,1.0,2.1, 23,2861,1010.40
2005-06-08 13:00,14.8,0.2,0.7,232,2912,1010.89
2005-06-08 14:00,14.4,1.6,1.9,347,2903,1011.14
2005-06-08 15:00,11.0,2.5,3.0,188,2788,1011.57
2005-06-08 16:00,10.5,2.1,2.4,207,2785,1012.30
2005-06-08 17:00,10.7,3.4,4.0,198,2795,1012.67
2005-06-08 18:00,9.6,2.6,3.4,189,2749,1012.91
2005-06-08 19:00,9.4,2.6,3.2,186,2754,1012.91
2005-06-08 20:00,9.9,2.7,3.1,203,2798,1013.16
2005-06-08 21:00,10.0,1.6,2.0,239,2825,1013.83
2005-06-08 22:00,9.6,1.4,1.7,149,2755,1013.96
2005-06-08 23:00,10.4,1.9,2.3,233,2834,1014.57
2005-06-09 00:00,,,,,,
2005-06-09 01:00,,,,,,
2005-06-09 02:00,10.7,2.1,2.5,230,2814,1015.92
2005-06-09 03:00,10.7,0.9,1.7,272,2801,1016.47
2005-06-09 04:00,9.7,2.5,3.0,194,2775,1016.72
2005-06-09 05:00,10.0,1.4,1.9,156,2815,1016.59
2005-06-09 06:00,9.5,2.2,2.4, 79,2791,1016.96
2005-06-09 07:00,9.4,1.9,2.4,121,2817,1017.39
2005-06-09 08:00,8.9,3.2,3.5,110,2770,1017.39
2005-06-09 09:00,8.8,3.0,3.5, 82,2751,1018.19
2005-06-09 10:00,8.8,3.1,3.5, 64,2762,1018.68
2005-06-09 11:00,8.9,3.0,3.4, 52,2763,1019.29
2005-06-09 12:00,9.7,3.6,4.0, 46,2793,1019.41
2005-06-09 13:00,8.6,2.9,3.4, 83,2755,1019.78
2005-06-09 14:00,9.4,3.8,4.2, 50,2706,1020.33
2005-06-09 15:00,8.7,2.2,2.7, 70,2703,1021.13
2005-06-09 16:00,9.0,2.1,2.4,100,2639,1020.88
2005-06-09 17:00,9.3,1.9,2.4, 41,2728,1021.01
2005-06-09 18:00,9.2,2.1,2.4, 87,2607,1020.52
2005-06-09 19:00,9.6,1.8,2.1, 82,2581,1020.39
2005-06-09 20:00,9.5,2.3,2.7,129,2537,1020.09
2005-06-09 21:00,9.9,1.7,2.2,108,2485,1019.90
2005-06-09 22:00,9.8,2.3,2.5, 95,2596,1019.78
2005-06-09 23:00,,,,,,
2005-06-10 00:00,,,,,,
2005-06-10 01:00,,,,,,
2005-06-10 02:00,9.9,1.6,2.0,181,2261,1020.82
2005-06-10 03:00,9.7,0.7,1.5,183,1919,1020.76
2005-06-10 04:00,9.5,0.2,0.7,295,1791,1020.64
2005-06-10 05:00,9.6,2.1,2.5,312,1814,1020.94
2005-06-10 06:00,9.4,3.1,3.6,152,2122,1019.84
2005-06-10 07:00,8.7,3.1,3.6,112,2137,1019.29
2005-06-10 08:00,8.9,1.1,2.1,188,2087,1019.17
2005-06-10 09:00,9.2,2.1,2.6,157,2116,1019.35
2005-06-10 10:00,8.9,1.3,2.0,282,2181,1019.72
2005-06-10 11:00,9.0,2.4,2.8,194,2232,1019.47
2005-06-10 12:00,9.0,2.5,3.0,198,2174,1019.60
2005-06-10 13:00,8.9,3.5,4.0,217, 168,1019.35
2005-06-10 14:00,8.7,1.9,2.7,224, 137,1019.04
2005-06-10 15:00,9.1,2.6,2.8,223, 153,1018.55
2005-06-10 16:00,9.7,7.3,8.3,206, 288,1018.06
2005-06-10 17:00,9.6,7.2,8.1,212, 187,1017.76
2005-06-10 18:00,9.5,5.8,6.6,222, 422,1017.14
2005-06-10 19:00,9.7,5.8,6.5,217, 349,1016.41
2005-06-10 20:00,9.8,5.1,6.5,224, 226,1016.04
2005-06-10 21:00,9.6,4.0,5.1,268, 396,1016.22
2005-06-10 22:00,9.6,1.0,2.8,254, 219,1015.92
2005-06-10 23:00,9.8,4.4,4.9,226, 368,1015.43
2005-06-11 00:00,,,,,,
2005-06-11 01:00,,,,,,
2005-06-11 02:00,10.1,3.7,4.2,217, 256,1015.06
2005-06-11 03:00,10.4,5.5,6.4,223, 314,1014.81
2005-06-11 04:00,10.4,5.4,6.3,215, 298,1014.69
2005-06-11 05:00,10.4,4.3,5.5,219, 168,1015.12
2005-06-11 06:00,9.3,2.8,3.6,198, 191,1015.00
2005-06-11 07:00,10.1,4.2,5.1,229, 207,1014.57
2005-06-11 08:00,9.6,4.1,4.6,232, 170,1014.69
2005-06-11 09:00,9.9,4.4,5.3,254, 332,1014.88
2005-06-11 10:00,9.2,3.4,3.8,250, 205,1015.18
2005-06-11 11:00,9.2,2.4,3.1,244, 124,1015.61
2005-06-11 12:00,9.1,2.8,3.5,235, 244,1015.61
2005-06-11 13:00,9.6,2.0,2.5,250,2009,1015.80
2005-06-11 14:00,9.6,2.6,3.3,223,2200,1016.16
2005-06-11 15:00,10.2,1.8,2.1,225,2451,1016.29
2005-06-11 16:00,10.2,2.0,2.5,174,2507,1016.47
2005-06-11 17:00,11.5,2.6,3.3, 44, 273,1016.78
2005-06-11 18:00,9.2,4.8,5.6, 72, 300,1017.33
2005-06-11 19:00,8.5,4.6,5.5, 83, 180,1017.14
2005-06-11 20:00,,,,,,
2005-06-11 21:00,8.2,3.4,3.8, 68,1110,1016.59
2005-06-11 22:00,8.5,2.6,3.4, 51, 188,1017.14
2005-06-11 23:00,8.5,2.3,2.7, 60,2304,1017.14
2005-06-12 00:00,,,,,,
2005-06-12 01:00,,,,,,
2005-06-12 02:00,8.9,0.6,1.2, 67,2358,1017.57
2005-06-12 03:00,8.6,2.1,2.5, 29,2476,1017.45
2005-06-12 04:00,8.4,1.2,1.8,112,2431,1017.21
2005-06-12 05:00,8.2,1.8,2.0, 75,  89,1016.59
2005-06-12 06:00,8.3,2.7,3.0,113, 249,1016.29
2005-06-12 07:00,8.4,1.2,2.1,111, 203,1016.10
2005-06-12 08:00,8.2,2.6,2.9, 90, 168,1015.92
2005-06-12 09:00,8.3,2.7,3.3, 92, 206,1015.92
2005-06-12 10:00,8.4,1.9,2.5,128, 143,1015.98
2005-06-12 11:00,8.4,2.8,3.1, 82, 165,1015.61
2005-06-12 12:00,8.4,1.9,2.4,110, 100,1015.55
2005-06-12 13:00,8.3,1.6,1.8, 45, 145,1015.37
2005-06-12 14:00,8.3,2.2,2.5, 44, 191,1014.88
2005-06-12 15:00,8.7,1.3,1.9, 58, 231,1014.39
2005-06-12 16:00,10.1,1.2,1.5, 42, 327,1013.59
2005-06-12 17:00,,,,,,
2005-06-12 18:00,11.4,1.7,1.9,186,1316,1012.24
2005-06-12 19:00,10.6,0.9,1.1,170, 473,1011.44
2005-06-12 20:00,9.7,3.2,3.6,188, 283,1010.65
2005-06-12 21:00,9.4,3.0,3.6,236,1765,1010.34
2005-06-12 22:00,9.3,0.5,1.4,197,1886,1010.40
2005-06-12 23:00,8.7,1.8,2.5,184, 983,1010.40
2005-06-13 00:00,,,,,,
2005-06-13 01:00,,,,,,
2005-06-13 02:00,9.2,3.3,3.6,230, 200,1009.48
2005-06-13 03:00,9.6,3.1,3.6,246, 277,1009.24
2005-06-13 04:00,9.6,3.0,3.5,242,1879,1008.50
2005-06-13 05:00,9.7,3.2,3.7,254,2016,1007.77
2005-06-13 06:00,9.6,3.0,3.5,270,2196,1007.28
2005-06-13 07:00,9.6,2.9,3.4,249,2228,1006.72
2005-06-13 08:00,9.7,2.1,2.6,268,2005,1006.60
2005-06-13 09:00,10.1,3.4,3.7,261,1734,1006.60
2005-06-13 10:00,10.4,2.3,2.9,272,1546,1006.66
2005-06-13 11:00,10.9,2.0,2.4,277, 286,1006.66